Location: Middelsbur
(53.6609°N, 7.5020°E)
Time: 23:38:17
(UTC+00:00)

Cosmos 2278 Rocket - Pass Details

Date: 06 July 2020
Orbit: 841 x 845 km, 71.0° (Epoch: 14 August)

Event Time Altitude Azimuth Distance (km) Brightness Sun altitude
Rises 20:44:19 0° 327° (NNW) 3,418 8.0 -5.4°
Reaches altitude 10° 20:46:48 10° 331° (NNW) 2,479 6.4 -5.6°
Maximum altitude 20:52:28 64° 53° (NE) 934 2.5 -6.1°
Drops below altitude 10° 20:58:05 10° 135° (SE) 2,463 4.0 -6.6°
Enters shadow 20:58:36 - 136° (SE) 2,654 4.1 -6.6°
